GW1554 Weather Reports


Display with metric or nautical units.
time (UTC)temp
F
wind
direction
speed
MPH
gust
MPH
rain 1hr
in
rain 24hr
in
rain mn
in
humidity
%
barometer
mb
20260831081520 79 296 0.0 2.0 0.00 0.00 0.00 61 1016.3
20260831080017 79 255 1.0 3.0 0.00 0.00 0.00 64 1016.2
20260831074515 77 300 2.0 3.0 0.00 0.00 0.00 65 1016.3
20260831073012 77 269 1.0 3.0 0.00 0.00 0.00 68 1016.2
20260831071512 77 282 1.0 3.0 0.00 0.00 0.00 68 1016.0
20260831070013 76 203 0.0 1.0 0.00 0.00 0.00 68 1015.8
20260831064508 76 275 0.0 2.0 0.00 0.00 0.00 69 1015.7
20260831063004 75 280 1.0 2.0 0.00 0.00 0.00 70 1015.7
20260831061601 74 321 0.0 2.0 0.00 0.00 0.00 73 1015.8
20260831060058 73 345 0.0 2.0 0.00 0.00 0.00 73 1015.8
20260831054604 72 319 0.0 6.0 0.00 0.00 0.00 73 1015.7
20260831053056 71 347 0.0 3.0 0.00 0.00 0.00 74 1015.8
20260831051553 71 12 1.0 5.0 0.00 0.00 0.00 74 1015.6
20260831050055 70 339 2.0 4.0 0.00 0.00 0.00 74 1015.5
20260831044610 70 1 1.0 3.0 0.00 0.00 0.00 73 1015.5
20260831043053 69 283 0.0 2.0 0.00 0.00 0.00 73 1015.5
20260831041610 70 326 1.0 2.0 0.00 0.00 0.00 72 1015.5
20260831040050 70 322 0.0 2.0 0.00 0.00 0.00 70 1015.3
20260831034550 70 293 0.0 1.0 0.00 0.00 0.00 70 1015.4
20260831033048 70 291 0.0 2.0 0.00 0.00 0.00 72 1015.5
20260831031547 70 309 0.0 3.0 0.00 0.00 0.00 73 1015.4
20260831030051 70 3 1.0 5.0 0.00 0.00 0.00 73 1015.5
20260831024545 70 35 1.0 5.0 0.00 0.00 0.00 74 1015.6
20260831023043 70 352 0.0 2.0 0.00 0.00 0.00 75 1015.6
20260831021541 70 352 0.0 3.0 0.00 0.00 0.00 75 1015.6
20260831020040 71 338 1.0 4.0 0.00 0.00 0.00 74 1015.4
20260831014539 71 30 3.0 8.0 0.00 0.00 0.00 75 1015.5
20260831013040 71 321 3.0 8.0 0.00 0.00 0.00 75 1015.8
20260831011542 71 331 1.0 7.0 0.00 0.00 0.00 75 1015.7
20260831010036 71 49 2.0 6.0 0.00 0.00 0.00 75 1015.4
20260831004536 71 346 2.0 4.0 0.00 0.00 0.00 75 1015.6
20260831003040 71 329 3.0 6.0 0.00 0.00 0.00 74 1015.7
20260831001532 70 345 3.0 7.0 0.00 0.00 0.00 76 1015.9
20260831000031 70 326 3.0 7.0 0.00 0.00 0.00 76 1016.1
20260830234540 71 339 3.0 5.0 0.00 0.00 0.00 76 1015.9
20260830233029 71 325 1.0 4.0 0.00 0.00 0.00 75 1016.1
20260830231535 71 338 1.0 3.0 0.00 0.00 0.00 76 1016.1
20260830230039 71 321 1.0 5.0 0.00 0.00 0.00 76 1016.2
20260830224525 71 10 2.0 6.0 0.00 0.00 0.00 76 1016.3
20260830223024 71 23 2.0 6.0 0.00 0.00 0.00 77 1016.2
20260830221522 71 325 3.0 8.0 0.00 0.00 0.00 77 1016.3
20260830220025 71 293 2.0 6.0 0.00 0.00 0.00 77 1016.3
20260830214520 70 313 2.0 4.0 0.00 0.00 0.00 78 1016.2
20260830213021 70 322 2.0 6.0 0.00 0.00 0.00 77 1016.1
20260830211522 71 337 1.0 4.0 0.00 0.00 0.00 77 1016.2
20260830210020 71 356 1.0 4.0 0.00 0.00 0.00 77 1016.0
20260830204518 71 349 0.0 1.0 0.00 0.00 0.00 78 1016.0
20260830203018 71 348 0.0 3.0 0.00 0.00 0.00 78 1015.9
20260830201533 71 333 0.0 4.0 0.00 0.00 0.00 78 1016.0
20260830200017 71 330 1.0 3.0 0.00 0.00 0.00 77 1016.0
20260830194516 71 335 0.0 4.0 0.00 0.00 0.00 78 1016.0
20260830193016 72 327 1.0 3.0 0.00 0.00 0.00 78 1016.0
20260830191522 72 27 1.0 3.0 0.00 0.00 0.00 79 1015.9
20260830190016 72 313 0.0 2.0 0.00 0.00 0.00 81 1015.8
20260830184514 73 6 1.0 4.0 0.00 0.00 0.00 82 1015.7
20260830183014 73 28 1.0 4.0 0.00 0.00 0.00 82 1015.6
20260830181513 74 214 0.0 1.0 0.00 0.00 0.00 80 1015.5
20260830180023 75 214 0.0 3.0 0.00 0.00 0.00 78 1015.4
20260830174513 76 233 0.0 3.0 0.00 0.00 0.00 79 1015.4
20260830173010 78 120 0.0 4.0 0.00 0.00 0.00 76 1015.4
20260830171509 79 255 1.0 4.0 0.00 0.00 0.00 73 1015.4
20260830170008 79 246 2.0 8.0 0.00 0.00 0.00 72 1015.3
20260830164507 80 238 2.0 7.0 0.00 0.00 0.00 69 1015.4
20260830163016 80 195 1.0 5.0 0.00 0.00 0.00 70 1015.4
20260830161508 80 99 4.0 8.0 0.00 0.00 0.00 72 1015.4
20260830160005 81 200 3.0 8.0 0.00 0.00 0.00 70 1015.3
20260830154504 81 217 2.0 8.0 0.00 0.00 0.00 69 1015.3
20260830153003 82 140 2.0 6.0 0.00 0.00 0.00 67 1015.4
20260830151503 82 104 2.0 8.0 0.00 0.00 0.00 69 1015.4
20260830150002 81 219 2.0 8.0 0.00 0.00 0.00 69 1015.4
20260830144501 82 161 3.0 8.0 0.00 0.00 0.00 67 1015.5
20260830143003 81 208 2.0 9.0 0.00 0.00 0.00 68 1015.5
20260830141603 81 30 3.0 11.0 0.00 0.00 0.00 68 1015.4
20260830140104 81 243 4.0 10.0 0.00 0.00 0.00 68 1015.6
20260830134700 82 128 2.0 6.0 0.00 0.00 0.00 64 1015.7
20260830133109 82 125 2.0 10.0 0.00 0.00 0.00 62 1015.7
20260830131559 82 210 4.0 8.0 0.00 0.00 0.00 61 1015.8
20260830130057 82 131 1.0 7.0 0.00 0.00 0.00 62 1015.9
20260830124618 82 127 5.0 11.0 0.00 0.00 0.00 61 1015.9
20260830123102 82 123 3.0 9.0 0.00 0.00 0.00 62 1016.0
20260830121556 82 158 3.0 11.0 0.00 0.00 0.00 61 1016.1
20260830120057 82 122 5.0 10.0 0.00 0.00 0.00 62 1016.0
20260830114607 82 115 3.0 10.0 0.00 0.00 0.00 61 1016.0
20260830113052 82 127 3.0 10.0 0.00 0.00 0.00 62 1015.9
20260830111552 84 205 3.0 10.0 0.00 0.00 0.00 60 1016.0
20260830110050 84 214 2.0 7.0 0.00 0.00 0.00 60 1016.0
20260830104554 83 250 2.0 7.0 0.00 0.00 0.00 62 1016.2
20260830103046 83 138 3.0 7.0 0.00 0.00 0.00 61 1016.1
20260830101543 83 124 1.0 12.0 0.00 0.00 0.00 60 1016.2
20260830100042 82 255 2.0 7.0 0.00 0.00 0.00 60 1016.3
20260830094541 82 266 2.0 8.0 0.00 0.00 0.00 58 1016.2
20260830093039 82 43 3.0 7.0 0.00 0.00 0.00 59 1016.3
20260830091536 82 161 0.0 4.0 0.00 0.00 0.00 57 1016.4
20260830090054 80 286 2.0 4.0 0.00 0.00 0.00 57 1016.3
20260830084534 82 214 1.0 3.0 0.00 0.00 0.00 54 1016.2
20260830083031 80 122 0.0 3.0 0.00 0.00 0.00 55 1016.1